Location: Brantley
(31.5822°N, 86.2569°W)
Time: 14:13:03
(UTC+00:00)

Courier 1B - Pass Details

Date: 18 February 2026
Orbit: 962 x 1208 km, 28.3° (Epoch: 11 March)

Event Time Altitude Azimuth Distance (km) Brightness Sun altitude
Rises 22:16:42 0° 203° (SSW) 3,734 11.3 14.9°
Reaches altitude 10° 22:20:40 10° 181° (S) 2,835 10.3 14.1°
Maximum altitude 22:24:21 15° 148° (SSE) 2,528 9.7 13.4°
Drops below altitude 10° 22:28:09 10° 116° (ESE) 2,938 9.7 12.6°
Sets 22:32:22 0° 94° (E) 3,955 10.1 11.8°
